Vorticity
12 11 9 11 12 13 12 12 12 9 10 13 12 11 10 9 9 10 11 10 8 10 14 11 12 11 9 9 13 9 7 8 6 4 8 3 7 18 13 15 16 17 21 23
14 13 10 6 9 9 10 10 5 8 7 10 10 12 12 12 11 10 10 13 14 12 10 13 16 13 10 9 3 3 -2 6 10 7 11 11 13 16 17 22 24 17 16 13
6 8 8 4 10 8 7 9 11 13 11 12 11 13 16 15 18 14 11 11 13 17 18 10 4 4 7 4 3 1 4 9 6 5 10 17 22 29 20 17 17 18 17 15
12 12 7 13 13 12 9 7 11 13 16 14 13 12 35 27 12 29 31 21 18 14 10 7 6 4 0 4 4 11 12 3 20 23 24 29 18 19 17 15 13 14 15 15
11 11 12 9 8 8 9 7 13 15 13 14 19 45 5 21 14 5 12 9 -2 -7 -4 -9 3 8 24 15 6 4 13 25 29 23 18 19 17 15 14 16 16 15 13 13
13 13 12 13 15 14 17 17 15 18 25 26 23 30 5 -5 -4 7 14 6 4 3 3 6 3 17 3 8 24 27 32 24 19 18 17 15 13 15 15 8 8 10 11 14
11 9 9 11 13 13 18 19 18 22 19 14 4 4 11 0 4 10 10 9 11 19 19 30 28 32 28 24 20 19 22 19 17 18 12 13 12 4 4 7 8 5 10 14
14 14 17 22 20 13 13 14 15 17 19 25 16 54 23 32 27 14 10 16 24 16 19 12 23 24 24 25 21 19 18 18 12 10 11 8 3 -0 2 2 2 8 6 14
21 18 23 19 14 19 19 18 17 16 17 19 27 5 -2 2 7 6 15 11 8 5 23 16 14 18 19 14 12 10 12 9 8 8 9 8 3 3 2 2 3 8 7 15
14 13 12 14 20 17 15 16 14 16 19 23 37 2 5 15 11 11 18 14 14 12 25 20 16 13 15 12 12 7 6 7 8 8 7 6 4 4 4 8 8 11 9 18
11 17 12 16 13 14 18 14 16 14 20 40 8 -2 -1 3 6 5 -3 26 36 23 15 13 11 11 11 13 12 11 12 11 10 9 9 8 9 9 12 13 14 10 8 19
4 14 5 4 12 15 17 15 13 16 21 11 -10 -6 5 5 -1 26 30 13 9 9 12 14 14 13 14 14 12 12 12 11 11 10 9 8 8 9 11 11 12 7 12 17
7 2 3 15 5 23 16 14 13 14 10 5 4 3 16 34 20 11 6 9 10 10 14 12 12 11 13 12 11 10 10 9 9 10 9 8 7 5 9 15 11 7 14 14
14 13 18 9 13 19 18 14 13 10 20 19 10 13 11 7 8 12 9 8 10 14 16 19 19 18 16 14 11 8 7 6 6 5 7 8 10 12 14 14 0 12 11 12
18 19 16 14 10 16 15 15 20 7 6 2 7 9 10 11 11 12 16 17 12 14 13 12 13 14 13 17 20 21 20 19 18 19 17 13 12 14 15 11 4 10 14 13
22 20 18 14 14 13 14 24 18 6 -4 7 5 5 7 2 2 -2 -10 -0 12 18 9 7 6 2 2 4 4 5 9 15 16 15 14 20 21 15 14 10 5 14 13 11
15 16 13 11 13 9 28 1 7 11 7 8 -2 4 0 -9 4 3 10 18 6 6 5 7 3 6 6 13 16 15 13 10 6 5 8 14 10 17 19 12 5 15 13 10
17 14 13 13 15 17 18 13 2 4 -11 7 13 -4 -2 -2 7 9 15 16 8 10 6 4 7 1 1 4 5 8 11 4 13 17 16 9 6 10 14 8 3 6 15 9
15 14 14 12 13 16 24 8 3 -2 6 11 5 -1 3 10 17 16 11 -1 8 5 5 5 1 2 1 2 -4 1 5 5 5 -3 0 21 12 11 11 12 16 11 17 10
10 11 10 13 14 15 17 18 13 9 11 14 14 9 6 6 7 12 18 15 5 -3 1 4 7 5 3 1 -3 -1 -2 2 5 6 3 6 20 12 12 12 12 15 18 10
9 10 13 13 10 10 8 8 8 4 2 1 4 6 8 8 7 1 -7 -5 -1 1 3 2 1 4 3 5 8 9 2 -0 9 14 9 5 5 22 21 10 17 15 18 10
6 7 4 6 5 6 11 10 8 13 5 8 -2 1 4 6 3 0 0 5 6 6 4 4 5 6 5 3 5 11 12 11 11 6 6 6 5 26 25 17 20 16 17 10
-3 1 1 0 -0 -0 -2 4 4 -0 0 11 5 4 3 2 3 -4 2 4 7 11 10 10 9 8 9 12 13 9 8 8 4 6 10 22 32 40 30 18 25 13 15 11
-1 6 7 10 4 6 10 7 7 8 4 7 8 7 6 6 5 3 3 10 15 9 4 4 4 6 6 8 7 7 12 16 30 44 49 58 53 34 22 25 19 10 17 12
8 7 2 1 12 9 2 -0 10 16 15 13 10 13 19 18 14 15 15 12 17 15 12 12 15 25 37 46 41 37 46 46 18 10 26 34 32 27 24 25 11 9 17 13
7 8 12 17 28 36 47 18 13 16 17 19 20 22 28 29 29 31 25 21 27 32 32 31 28 27 26 26 23 13 20 31 31 29 28 28 23 20 19 19 8 13 15 10
16 13 11 10 15 24 18 14 16 17 17 18 21 23 22 21 17 16 17 14 12 11 10 13 12 14 19 24 20 13 16 19 20 28 24 23 18 12 22 13 9 15 13 9
Height
5647 5645 5640 5637 5632 5628 5621 5621 5613 5619 5610 5609 5605 5601 5596 5594 5591 5587 5584 5581 5578 5575 5572 5568 5566 5564 5562 5559 5556 5553 5550 5547 5544 5542 5538 5534 5531 5527 5523 5518 5515 5512 5509 5505
5631 5627 5620 5618 5614 5609 5609 5603 5596 5594 5592 5590 5584 5580 5577 5574 5571 5567 5564 5561 5558 5556 5553 5551 5549 5546 5543 5541 5538 5535 5532 5529 5526 5522 5518 5513 5508 5504 5501 5498 5494 5491 5488 5485
5614 5609 5603 5601 5598 5593 5590 5585 5578 5575 5574 5570 5566 5563 5559 5554 5551 5547 5546 5544 5541 5539 5536 5534 5532 5530 5527 5524 5521 5517 5514 5510 5506 5502 5498 5494 5490 5486 5483 5481 5477 5474 5471 5467
5592 5589 5585 5582 5576 5571 5566 5563 5557 5552 5550 5546 5544 5541 5537 5535 5532 5532 5530 5527 5525 5522 5520 5517 5515 5513 5511 5507 5503 5500 5496 5492 5488 5484 5480 5476 5473 5470 5468 5465 5462 5459 5456 5452
5574 5570 5568 5564 5558 5553 5547 5546 5540 5535 5530 5527 5524 5522 5521 5518 5518 5517 5515 5511 5509 5505 5503 5500 5498 5494 5491 5487 5484 5480 5477 5472 5469 5466 5463 5461 5459 5457 5455 5452 5449 5446 5441 5437
5559 5552 5545 5545 5539 5533 5528 5526 5522 5517 5514 5511 5509 5509 5508 5505 5502 5500 5498 5495 5491 5487 5484 5482 5479 5477 5473 5470 5465 5462 5458 5455 5454 5452 5450 5448 5446 5444 5442 5441 5437 5433 5429 5424
5541 5532 5530 5527 5523 5518 5512 5511 5504 5504 5501 5498 5496 5496 5493 5487 5484 5483 5481 5478 5474 5470 5467 5467 5465 5460 5456 5452 5450 5447 5444 5442 5440 5439 5438 5437 5435 5433 5431 5428 5424 5419 5416 5410
5524 5519 5517 5511 5506 5501 5496 5491 5488 5485 5483 5482 5478 5478 5471 5470 5468 5466 5464 5462 5460 5458 5455 5452 5449 5445 5441 5438 5436 5434 5432 5430 5429 5428 5427 5425 5423 5421 5417 5414 5411 5407 5402 5397
5509 5506 5498 5492 5488 5484 5479 5475 5471 5468 5467 5465 5463 5464 5461 5457 5455 5453 5451 5449 5446 5443 5438 5434 5433 5430 5427 5425 5423 5421 5420 5419 5418 5416 5415 5413 5411 5408 5405 5401 5397 5393 5389 5384
5494 5496 5486 5482 5476 5471 5467 5462 5459 5456 5453 5451 5450 5449 5447 5445 5444 5443 5440 5437 5433 5430 5425 5421 5419 5416 5415 5413 5412 5410 5409 5407 5405 5404 5402 5400 5397 5394 5391 5388 5384 5380 5376 5371
5485 5480 5474 5470 5464 5459 5455 5451 5447 5444 5442 5439 5440 5439 5437 5435 5432 5430 5428 5424 5420 5417 5413 5410 5407 5404 5403 5402 5400 5398 5396 5394 5392 5390 5388 5386 5383 5380 5376 5372 5369 5366 5362 5358
5472 5466 5462 5459 5453 5448 5444 5440 5437 5435 5433 5431 5430 5429 5426 5423 5421 5418 5414 5411 5408 5405 5403 5400 5396 5393 5392 5390 5388 5385 5383 5381 5380 5378 5375 5372 5370 5366 5361 5358 5355 5351 5347 5344
5460 5455 5450 5445 5440 5436 5432 5429 5426 5424 5423 5422 5419 5417 5414 5411 5409 5407 5404 5401 5398 5394 5392 5389 5385 5383 5382 5379 5377 5374 5372 5370 5368 5365 5362 5359 5356 5354 5352 5344 5340 5337 5333 5330
5444 5441 5438 5432 5428 5424 5421 5418 5416 5414 5412 5411 5408 5406 5404 5401 5399 5396 5394 5391 5388 5385 5382 5378 5375 5372 5370 5367 5364 5361 5358 5356 5355 5352 5349 5346 5343 5341 5337 5335 5333 5327 5321 5317
5431 5426 5422 5419 5415 5411 5409 5407 5405 5404 5402 5401 5399 5396 5394 5392 5389 5386 5383 5380 5377 5374 5371 5367 5364 5361 5359 5355 5352 5349 5347 5344 5342 5338 5334 5331 5329 5327 5324 5322 5320 5316 5313 5308
5417 5413 5410 5407 5404 5400 5398 5397 5396 5394 5393 5390 5388 5386 5384 5381 5377 5374 5372 5370 5366 5363 5360 5357 5354 5351 5349 5346 5343 5340 5336 5332 5330 5327 5323 5320 5316 5313 5311 5309 5307 5304 5300 5297
5404 5401 5398 5395 5392 5390 5387 5387 5386 5384 5382 5380 5377 5374 5372 5369 5366 5363 5360 5358 5355 5353 5350 5348 5345 5341 5338 5334 5332 5329 5326 5322 5318 5315 5311 5308 5305 5302 5299 5297 5295 5292 5289 5286
5391 5388 5385 5382 5380 5379 5378 5379 5377 5374 5371 5369 5364 5361 5358 5356 5353 5350 5348 5345 5341 5339 5337 5334 5331 5328 5325 5321 5319 5317 5314 5311 5307 5303 5299 5296 5292 5289 5287 5285 5282 5280 5278 5275
5379 5376 5374 5371 5369 5368 5367 5365 5362 5359 5356 5352 5349 5347 5345 5342 5340 5336 5334 5331 5327 5325 5321 5318 5316 5313 5309 5306 5303 5301 5299 5296 5293 5290 5286 5282 5279 5275 5272 5270 5269 5267 5265 5264
5369 5366 5363 5360 5357 5355 5352 5350 5347 5344 5341 5338 5335 5333 5330 5327 5324 5321 5318 5315 5311 5310 5306 5302 5299 5296 5292 5289 5285 5283 5281 5278 5275 5272 5270 5266 5263 5260 5258 5256 5254 5254 5253 5252
5355 5352 5349 5346 5343 5341 5338 5335 5332 5329 5326 5323 5320 5317 5313 5310 5306 5304 5301 5298 5293 5290 5287 5284 5281 5277 5274 5270 5266 5264 5261 5256 5254 5251 5249 5247 5244 5242 5241 5241 5240 5240 5240 5240
5341 5338 5335 5332 5328 5325 5322 5319 5316 5312 5308 5304 5300 5297 5294 5290 5286 5283 5279 5277 5274 5269 5266 5263 5259 5255 5251 5247 5246 5242 5238 5235 5231 5229 5226 5224 5222 5222 5223 5223 5225 5226 5227 5228
5325 5322 5318 5315 5311 5307 5303 5299 5295 5291 5286 5282 5278 5274 5270 5266 5263 5259 5257 5250 5248 5244 5241 5239 5234 5231 5226 5224 5220 5216 5213 5210 5206 5203 5200 5197 5197 5199 5202 5205 5209 5212 5214 5217
5306 5302 5298 5293 5288 5284 5280 5275 5271 5266 5261 5257 5253 5248 5245 5241 5238 5232 5229 5226 5223 5220 5217 5213 5209 5206 5202 5198 5194 5191 5187 5183 5179 5175 5171 5169 5171 5177 5182 5188 5194 5199 5203 5205
5284 5279 5275 5270 5264 5258 5253 5247 5242 5236 5232 5227 5222 5219 5215 5211 5209 5205 5201 5198 5195 5191 5189 5185 5181 5178 5174 5169 5165 5163 5160 5158 5156 5156 5154 5153 5156 5161 5167 5175 5182 5188 5192 5195
5259 5254 5249 5243 5236 5231 5224 5218 5214 5207 5202 5198 5192 5190 5187 5183 5180 5176 5173 5171 5168 5165 5163 5160 5157 5154 5151 5148 5145 5144 5143 5141 5140 5140 5141 5142 5146 5151 5158 5165 5172 5177 5182 5186
5235 5229 5224 5219 5213 5209 5203 5196 5191 5186 5179 5174 5171 5168 5164 5160 5156 5153 5152 5149 5146 5145 5143 5140 5138 5136 5134 5132 5130 5129 5129 5128 5128 5129 5130 5134 5139 5144 5150 5157 5164 5169 5174 5178